Das Wetter in  D-61279 Heinzenberg / Taunus





Wetter Minimum- & Maximum-Werte im Juni 2014

Standort: Heinzenberg / Taunus - Höhe 297 m         8 24' 1" Ost 50 21' 51" Nord
(   3-stündige Aktualisierung    letzte Aktualisierung um 19:04 am 30.06.2014  )


Messgrösse

Minimum

Maximum

Durchschnitt

Temperatur West /
Luftfeuchte West
Anklicken für Monats-Diagramm

5,4 C

06:02
06.06.2014

33 %

17:33
08.06.2014

35,0 C

17:19
09.06.2014

91 %

09:51
11.06.2014

Temp

16,5 C

Feuchte

67 %

Temperatur Ost /
Luftfeuchte Ost
Anklicken für Monats-Diagramm

5,8 C

05:57
06.06.2014

--

--
--

34,0 C

16:59
09.06.2014

--

--
--

16,4 C

--

Luftdruck Anklicken für Monats-Diagramm

1005,0 hPa

05:31
29.06.2014

1027,4 hPa

01:12
12.06.2014

1017,4 hPa

Taupunkt

2,3 C

05:57
06.06.2014

20,8 C

16:09
09.06.2014

10,0 C

Windchill
( gefühlte Temperatur )

0,8 C

05:51
05.06.2014

35,0 C

17:19
09.06.2014

15,4 C

Windgeschwindigkeit /
Windrichtung
Anklicken für Monats-Diagramm

---

45,9 km/h / W-NW

06:56
11.06.2014

6,7 km/h
NW

Helligkeit /
Sonnenschein
Anklicken für Monats-Diagramm
Anklicken für Monats-Diagramm

Sonnenschein:

188:44 Stunden

Max: 13:20 Std am
08.06.2014

110 klux

12:19
26.06.2014

33 klux

Solarstrahlung Anklicken für Monats-Diagramm

---

752 W/m

12:19
26.06.2014

246 W/m

Regenmenge
    Juni 2014
Anklicken für Monats-Diagramm

Insgesamt 40,7 l/m

in 18:17 Stunden
an 10 Tagen

23,7 l/m

06:56
11.06.2014

Gesamtmenge

40,7 l/m

Regen-Tage
    Juni 2014
Anklicken für Monats-Diagramm

>   0 mm/Tag

>   2 mm/Tag

>   5 mm/Tag

> 10 mm/Tag

> 20 mm/Tag

10 Tage     
4 Tage     
2 Tage     
  1 Tag     
  1 Tag     

Eisige Tage Juni 2014 / 2013

Tmin ≤ -10C     

0 Tage

/

0 Tage

Eistage Juni 2014 / 2013

Tmax <     0C     

0 Tage

/

0 Tage

Frosttage Juni 2014 / 2013

Tmin ≤     0C     

0 Tage

/

0 Tage

Kalte Tage Juni 2014 / 2013

Tmax <   10C     

0 Tage

/

0 Tage

Warme Tage Juni 2014 / 2013

Tmax ≥   20C     

24 Tage

/

17 Tage

Sommertage Juni 2014 / 2013

Tmax ≥   25C     

8 Tage

/

8 Tage

Heisse Tage Juni 2014 / 2013

Tmax ≥   30C     

4 Tage

/

3 Tage


Monatsdiagramm Juni 2014

Die Kurven zeigen den Durchschnittswert des jeweiligen Tages an


Wetter-Monatsübersicht Juni 2014
Datum
  Temperatur
   Luftdruck
   Wind
  Regen
   Luftfeuchte
   Helligkeit

Sonnen-
schein


Temp.

Min.
Temp.

Max.
Temp.


Luftdruck

Min.
Luftdruck

Max.
Luftdruck

-Geschw.
Haupt-Richtg.

Max.
Wind

Menge /
Dauer


Feuchte

Min.
Feuchte

Max.
Feuchte


Helligkeit

Max.
Helligkeit

1.
Juni
14,0 C8,0 C
05:47
20,4 C
18:22
1020,1 hPa1018,7 hPa
18:22
1021,8 hPa
00:02
3,8 km/h
N-NW
21,2 km/h
13:12  
---
67 %42 %
12:07
84 %
07:02
29,7 klux94,0 klux
15:07
3:45 Std 
2.
Juni
15,1 C7,0 C
06:33
24,1 C
18:33
1018,3 hPa1015,2 hPa
18:33
1020,4 hPa
06:33
4,0 km/h
NW
18,1 km/h
14:08  
---
63 %37 %
18:23
84 %
07:28
40,2 klux97,0 klux
13:13
9:15 Std 
3.
Juni
14,0 C7,2 C
05:39
21,8 C
16:09
1015,1 hPa1012,3 hPa
16:09
1018,0 hPa
02:34
3,1 km/h
SO
34,1 km/h
16:24  
---
10 Minuten
69 %45 %
16:09
83 %
08:34
26,5 klux95,8 klux
13:09
3:55 Std 
4.
Juni
14,5 C8,2 C
06:15
22,2 C
13:45
1008,6 hPa1005,9 hPa
18:45
1012,7 hPa
02:15
8,0 km/h
SO
28,0 km/h
10:55  
6,2 l/m
3:05 Stunden
76 %50 %
13:40
86 %
07:25
26,4 klux92,6 klux
12:55
2:45 Std 
5.
Juni
13,5 C7,8 C
06:16
19,3 C
17:46
1013,4 hPa1007,1 hPa
00:01
1017,9 hPa
23:57
17,4 km/h
W-SW
43,2 km/h
02:16  
---
30 Minuten
67 %45 %
17:51
88 %
03:01
35,4 klux101,0 klux
14:46
8:20 Std 
6.
Juni
16,7 C5,4 C
06:02
28,1 C
18:52
1016,6 hPa1013,7 hPa
18:52
1019,5 hPa
06:02
5,0 km/h
SO
23,3 km/h
11:52  
---
60 %34 %
18:22
83 %
07:47
43 klux87 klux
11:17
12:30 Std 
7.
Juni
20,7 C10,2 C
06:07
30,2 C
15:47
1015,5 hPa1013,5 hPa
15:47
1016,9 hPa
23:58
6,0 km/h
SO
28,6 km/h
13:42  
---
61 %39 %
15:37
81 %
07:22
38,7 klux97,2 klux
13:42
7:56 Std 
8.
Juni
23,5 C13,6 C
05:33
33,4 C
17:18
1016,6 hPa1015,2 hPa
17:18
1017,8 hPa
09:08
7,6 km/h
W-SW
29,6 km/h
16:33  
---
60 %33 %
17:33
82 %
06:13
42,6 klux81,5 klux
11:43
13:20 Std 
9.
Juni
24,8 C15,0 C
05:44
35,0 C
17:19
1016,2 hPa1013,0 hPa
18:19
1018,3 hPa
05:44
5,3 km/h
SO
18,5 km/h
11:39  
---
62 %38 %
17:29
84 %
07:54
41,1 klux77,9 klux
12:54
11:00 Std 
10.
Juni
24,0 C16,9 C
06:20
33,2 C
18:25
1017,3 hPa1015,2 hPa
18:25
1020,7 hPa
23:56
4,8 km/h
NW
27,4 km/h
19:20  
---
63 %45 %
17:05
77 %
07:45
35,7 klux94,7 klux
14:05
5:45 Std 
11.
Juni
20,8 C17,2 C
07:21
25,8 C
16:06
1022,8 hPa1019,6 hPa
00:01
1026,2 hPa
23:52
8,4 km/h
W-NW
45,9 km/h
06:56  
23,7 l/m
2:31 Stunden
76 %62 %
17:46
91 %
09:51
34,9 klux102,0 klux
13:16
7:00 Std 
12.
Juni
19,6 C13,1 C
05:57
27,4 C
18:52
1025,0 hPa1022,1 hPa
18:52
1027,4 hPa
01:12
4,1 km/h
NW
16,8 km/h
19:22  
---
66 %39 %
18:52
86 %
06:42
41 klux96 klux
13:37
8:25 Std 
13.
Juni
17,2 C9,9 C
06:03
24,3 C
17:43
1021,2 hPa1018,3 hPa
17:43
1024,8 hPa
02:13
7,1 km/h
NW
29,4 km/h
15:13  
---
64 %44 %
17:28
82 %
07:08
39,6 klux93,7 klux
13:28
10:05 Std 
14.
Juni
14,6 C10,3 C
06:08
18,9 C
17:13
1019,4 hPa1018,2 hPa
18:28
1021,9 hPa
23:54
4,7 km/h
N-NW
21,3 km/h
13:28  
---
67 %50 %
15:48
84 %
07:48
25,0 klux109,0 klux
13:43
1:41 Std 
15.
Juni
15,2 C7,0 C
05:59
23,4 C
18:39
1021,2 hPa1019,4 hPa
18:39
1022,8 hPa
08:44
5,9 km/h
NO
23,6 km/h
11:09  
---
65 %40 %
16:39
86 %
07:19
36 klux103 klux
12:49
9:20 Std 
16.
Juni
14,1 C7,3 C
05:55
20,1 C
16:35
1020,7 hPa1018,8 hPa
16:35
1022,9 hPa
00:35
9,1 km/h
NW
28,4 km/h
14:25  
---
70 %52 %
16:30
85 %
07:25
34 klux95 klux
13:10
5:25 Std 
17.
Juni
16,5 C11,6 C
23:57
22,3 C
17:41
1019,9 hPa1018,5 hPa
17:41
1021,6 hPa
08:31
4,9 km/h
NO
21,7 km/h
19:06  
---
64 %45 %
13:46
79 %
05:06
33,8 klux101,0 klux
13:51
5:01 Std 
18.
Juni
16,1 C8,0 C
06:27
24,3 C
18:47
1020,2 hPa1017,2 hPa
18:47
1022,3 hPa
06:27
4,6 km/h
NW
19,6 km/h
18:47  
---
67 %47 %
14:47
85 %
07:27
35 klux101 klux
14:42
6:34 Std 
19.
Juni
13,7 C8,9 C
05:48
18,6 C
14:08
1019,3 hPa1017,2 hPa
18:43
1021,1 hPa
04:53
11,0 km/h
NW
27,7 km/h
10:33  
0,2 l/m
35 Minuten
73 %56 %
14:13
85 %
07:58
26 klux106 klux
12:38
1:55 Std 
20.
Juni
13,7 C10,8 C
05:08
18,2 C
15:58
1018,1 hPa1017,5 hPa
09:53
1018,7 hPa
01:43
12,7 km/h
NW
30,8 km/h
16:38  
0,2 l/m
20 Minuten
73 %57 %
16:38
85 %
00:53
21 klux94 klux
16:13
45 Min 
21.
Juni
14,9 C10,6 C
06:39
20,7 C
18:54
1018,7 hPa1017,6 hPa
18:54
1019,9 hPa
06:39
6,8 km/h
NW
23,8 km/h
13:44  
---
66 %45 %
16:14
81 %
07:29
29,5 klux108,0 klux
15:29
4:35 Std 
22.
Juni
15,0 C7,2 C
06:05
23,6 C
17:35
1019,6 hPa1018,5 hPa
18:35
1022,7 hPa
23:46
7,2 km/h
NW
28,1 km/h
11:40  
---
64 %41 %
16:50
85 %
08:10
36 klux105 klux
14:20
5:45 Std 
23.
Juni
15,3 C7,3 C
05:51
23,2 C
17:21
1021,1 hPa1017,6 hPa
19:26
1024,1 hPa
08:16
3,8 km/h
NO
19,0 km/h
16:26  
---
63 %42 %
17:31
82 %
07:36
39 klux101 klux
12:16
7:45 Std 
24.
Juni
15,4 C8,0 C
05:57
24,1 C
17:37
1017,3 hPa1014,2 hPa
17:37
1020,2 hPa
05:57
4,5 km/h
NW
24,6 km/h
18:57  
1,1 l/m
1:00 Stunden
68 %46 %
12:07
84 %
23:48
34 klux96 klux
13:47
7:16 Std 
25.
Juni
14,8 C10,4 C
05:18
21,1 C
17:43
1014,0 hPa1012,5 hPa
18:08
1016,7 hPa
23:54
7,6 km/h
N-NW
27,1 km/h
13:23  
---
67 %41 %
17:43
89 %
07:33
37,3 klux108,0 klux
14:38
7:20 Std 
26.
Juni
14,6 C6,5 C
05:39
24,1 C
18:24
1015,5 hPa1013,1 hPa
18:24
1017,3 hPa
05:39
3,6 km/h
SO
15,6 km/h
14:19  
---
63 %38 %
18:29
83 %
07:59
34 klux110 klux
12:19
6:30 Std 
27.
Juni
16,6 C7,8 C
06:25
25,9 C
17:30
1014,7 hPa1011,9 hPa
17:30
1017,1 hPa
06:25
6,3 km/h
W-SW
31,7 km/h
18:55  
---
61 %39 %
13:35
81 %
07:40
33 klux109 klux
13:30
5:51 Std 
28.
Juni
16,9 C12,8 C
05:41
22,4 C
12:26
1011,4 hPa1006,7 hPa
20:01
1015,1 hPa
00:16
6,7 km/h
W-SW
31,1 km/h
13:01  
4,9 l/m
3:46 Stunden
74 %53 %
12:36
87 %
23:02
19 klux84 klux
12:21
20 Min 
29.
Juni
14,0 C12,0 C
23:08
18,9 C
16:47
1008,5 hPa1005,0 hPa
05:31
1012,5 hPa
23:08
7,2 km/h
NW
25,9 km/h
13:02  
3,5 l/m
5:00 Stunden
86 %66 %
16:47
91 %
06:57
17,5 klux88,8 klux
14:57
1:10 Std 
30.
Juni
14,5 C11,1 C
06:18
19,8 C
18:48
1014,9 hPa1012,5 hPa
00:03
1018,8 hPa
23:59
10,7 km/h
NW
38,9 km/h
16:58  
1,1 l/m
1:20 Stunden
74 %50 %
15:28
90 %
06:43
34,7 klux97,1 klux
12:23
7:30 Std 



Juni
2014

Temperatur

  

Luftdruck

  

Wind

  

Regen

  

Luftfeuchte

  

Helligkeit

Sonnen-
schein

Min

Max

Min

Max

Max

Max

Min

Max

Max

Max

16,5 C

5,4 C

06:02 Uhr
06.06.2014

35,0 C

17:19 Uhr
09.06.2014

1017,4 hPa

1005,0 hPa

05:31 Uhr
29.06.2014

1027,4 hPa

01:12 Uhr
12.06.2014

6,7 km/h

NW

45,9 km/h

06:56 Uhr
11.06.2014

23,7 l/m

2:31 Stunden
11.06.2014

67 %

33 %

17:33 Uhr
08.06.2014

91 %

09:51 Uhr
11.06.2014

33,3 klux

110,0 klux

12:19 Uhr
26.06.2014

13:20 Std

am
08.06.2014

Gesamt

Gesamt

40,7 l/m

10 Tage
18:17 h

188:44 Std


Wetter-Diagramme Juni 2014     Heinzenberg / Taunus   
TemperaturLuftfeuchte
SolarstrahlungLuftdruck
HelligkeitSonnenschein
RegenmengeRegendauer
Wind-GeschwindigkeitWind-Richtung